Wacth_Time, WatchID,Watch_Activity_leve,Watch_SD, Watch_Thresh3SD, Watch_Motion_boolean,Watch_Running_Average, Watch_Worn_boolean, Watch_WearMinutes, Watch_WearHours
2019-01-09T14:10:40,Moto360_247G,0.2664,0.272, 0.0780001,1,1.0,1,1,0.0167
2019-01-09T14:34:31,Moto360_247G,0.2698,0.315, 0.0780001,1,1.0,1,1,0.0167
2019-01-09T14:35:33,Moto360_247G,0.2906,0.5978, 0.0780001,1,1.0,1,2,0.0333
2019-01-09T14:36:34,Moto360_247G,0.1679,0.3436, 0.0780001,1,1.0,1,3,0.05
2019-01-09T14:37:35,Moto360_247G,0.0733,0.1097, 0.0780001,1,1.0,1,4,0.0667
2019-01-09T14:38:38,Moto360_247G,0.1686,0.2592, 0.0780001,1,1.0,1,5,0.0833
2019-01-09T14:39:40,Moto360_247G,0.1731,0.1311, 0.0780001,1,1.0,1,6,0.1
2019-01-09T14:40:42,Moto360_247G,0.5315,1.1582, 0.0780001,1,1.0,1,7,0.1167
2019-01-09T14:41:42,Moto360_247G,0.2153,0.4902, 0.0780001,1,1.0,1,8,0.1333
2019-01-09T14:42:42,Moto360_247G,0.1145,0.0075, 0.0780001,0,0.8889,1,9,0.15
2019-01-09T14:43:42,Moto360_247G,0.1283,0.006, 0.0780001,0,0.8,1,10,0.1667
2019-01-09T14:56:17,Moto360_247G,5.7343,2.1195, 0.0780001,1,1.0,1,1,0.0167
2019-01-09T14:57:17,Moto360_247G,6.0754,1.9864, 0.0780001,1,1.0,1,2,0.0333
2019-01-09T15:10:47,Moto360_247G,0.2915,0.4035, 0.0780001,1,1.0,1,1,0.0167
2019-01-09T15:11:52,Moto360_247G,0.1797,0.2364, 0.0780001,1,1.0,1,2,0.0333
2019-01-10T00:35:58,Moto360_247G,0.0887,0.2729, 0.0780001,1,1.0,1,1,0.0167
2019-01-09T14:38:52,Moto360_247G,0.2046,0.488, 0.0780001,1,1.0,1,1,0.0167
2019-01-09T14:39:55,Moto360_247G,0.0661,0.0416, 0.0780001,0,0.5,1,2,0.0333
2019-01-09T15:00:24,Moto360_247G,0.197,0.6204, 0.0780001,1,1.0,1,1,0.0167
2019-01-09T15:01:25,Moto360_247G,0.1254,0.0064, 0.0780001,0,0.5,1,2,0.0333
2019-01-09T15:02:27,Moto360_247G,0.1236,0.0065, 0.0780001,0,0.3333,1,3,0.05
2019-01-09T15:05:25,Moto360_247G,0.1248,0.2967, 0.0780001,1,1.0,1,1,0.0167
2019-01-09T15:06:26,Moto360_247G,0.0383,0.0071, 0.0780001,0,0.5,1,2,0.0333
2019-01-09T15:07:33,Moto360_247G,0.0404,0.0078, 0.0780001,0,0.3333,1,3,0.05
2019-01-09T15:08:33,Moto360_247G,0.0309,0.0067, 0.0780001,0,0.25,1,4,0.0667
2019-01-09T15:09:37,Moto360_247G,0.0306,0.0065, 0.0780001,0,0.2,1,5,0.0833
2019-01-09T15:10:37,Moto360_247G,0.0298,0.0071, 0.0780001,0,0.1667,1,6,0.1
2019-01-09T15:29:21,Moto360_247G,0.247,0.434, 0.0780001,1,1.0,1,1,0.0167
2019-01-09T16:04:24,Moto360_247G,0.2065,0.4102, 0.0780001,1,1.0,1,1,0.0167
2019-01-09T16:05:27,Moto360_247G,0.2598,0.3023, 0.0780001,1,1.0,1,2,0.0333
2019-01-09T16:06:27,Moto360_247G,0.127,0.0372, 0.0780001,0,0.6667,1,3,0.05
2019-01-09T16:07:47,Moto360_247G,0.1441,0.2572, 0.0780001,1,0.75,1,4,0.0667
2019-01-09T16:08:54,Moto360_247G,0.1135,0.0177, 0.0780001,0,0.6,1,5,0.0833
2019-01-09T16:09:54,Moto360_247G,0.1055,0.0063, 0.0780001,0,0.5,1,6,0.1
2019-01-09T16:10:54,Moto360_247G,0.1894,0.6538, 0.0780001,1,0.5714,1,7,0.1167
2019-01-09T16:18:59,Moto360_247G,0.1341,0.205, 0.0780001,1,1.0,1,1,0.0167
2019-01-09T16:20:02,Moto360_247G,0.1929,0.4702, 0.0780001,1,1.0,1,2,0.0333
2019-01-09T16:21:03,Moto360_247G,0.114,0.0059, 0.0780001,0,0.6667,1,3,0.05
2019-01-09T16:22:03,Moto360_247G,0.1158,0.0064, 0.0780001,0,0.5,1,4,0.0667
2019-01-09T16:35:26,Moto360_247G,0.233,0.6475, 0.0780001,1,1.0,1,1,0.0167
2019-01-09T16:36:27,Moto360_247G,0.0401,0.0068, 0.0780001,0,0.5,1,2,0.0333
2019-01-09T16:37:54,Moto360_247G,0.0402,0.0063, 0.0780001,0,0.3333,1,3,0.05
2019-01-09T16:39:01,Moto360_247G,0.0405,0.0071, 0.0780001,0,0.25,1,4,0.0667
2019-01-09T16:40:01,Moto360_247G,0.0332,0.0145, 0.0780001,0,0.2,1,5,0.0833
2019-01-09T16:41:01,Moto360_247G,0.1305,0.031, 0.0780001,0,0.1667,1,6,0.1
2019-01-09T16:42:01,Moto360_247G,0.1224,0.0073, 0.0780001,0,0.1429,1,7,0.1167
2019-01-09T16:43:01,Moto360_247G,0.1477,0.0122, 0.0780001,0,0.125,1,8,0.1333
2019-01-09T16:44:01,Moto360_247G,0.1647,0.0076, 0.0780001,0,0.1111,1,9,0.15
2019-01-09T16:59:01,Moto360_247G,0.2715,0.5506, 0.0780001,1,1.0,1,1,0.0167
2019-01-09T17:00:01,Moto360_247G,0.1234,0.0062, 0.0780001,0,0.5,1,2,0.0333
2019-01-09T17:01:01,Moto360_247G,0.2566,0.3657, 0.0780001,1,0.6667,1,3,0.05
2019-01-09T17:02:01,Moto360_247G,0.125,0.0074, 0.0780001,0,0.5,1,4,0.0667
2019-01-09T17:03:01,Moto360_247G,0.1255,0.0065, 0.0780001,0,0.4,1,5,0.0833
2019-01-09T17:04:01,Moto360_247G,0.1206,0.0065, 0.0780001,0,0.3333,1,6,0.1
2019-01-09T17:05:01,Moto360_247G,0.1208,0.006, 0.0780001,0,0.2857,1,7,0.1167
2019-01-09T17:12:23,Moto360_247G,0.2881,0.3801, 0.0780001,1,1.0,1,1,0.0167
2019-01-09T17:13:24,Moto360_247G,0.2287,0.3947, 0.0780001,1,1.0,1,2,0.0333
2019-01-09T17:19:26,Moto360_247G,0.127,0.4641, 0.0780001,1,1.0,1,1,0.0167
2019-01-09T17:20:28,Moto360_247G,0.0282,0.0354, 0.0780001,0,0.5,1,2,0.0333
2019-01-09T17:21:29,Moto360_247G,0.0185,0.0062, 0.0780001,0,0.3333,1,3,0.05
2019-01-09T17:22:30,Moto360_247G,0.0163,0.0064, 0.0780001,0,0.25,1,4,0.0667
2019-01-09T17:23:32,Moto360_247G,0.015,0.006, 0.0780001,0,0.2,1,5,0.0833
2019-01-09T17:24:33,Moto360_247G,0.016,0.0064, 0.0780001,0,0.1667,1,6,0.1
2019-01-09T17:25:34,Moto360_247G,0.0175,0.0065, 0.0780001,0,0.1429,1,7,0.1167
2019-01-09T17:26:36,Moto360_247G,0.318,0.828, 0.0780001,1,0.25,1,8,0.1333
2019-01-09T21:15:01,Moto360_247G,0.3314,0.8507, 0.0780001,1,1.0,1,1,0.0167
2019-01-09T21:16:02,Moto360_247G,0.0829,0.008, 0.0780001,0,0.5,1,2,0.0333
2019-01-09T21:17:02,Moto360_247G,0.0822,0.0077, 0.0780001,0,0.3333,1,3,0.05
2019-01-09T21:18:02,Moto360_247G,0.0821,0.0075, 0.0780001,0,0.25,1,4,0.0667
2019-01-09T21:19:02,Moto360_247G,0.0803,0.0075, 0.0780001,0,0.2,1,5,0.0833
2019-01-09T21:20:35,Moto360_247G,0.0822,0.0074, 0.0780001,0,0.1667,1,6,0.1
2019-01-09T21:21:39,Moto360_247G,0.0794,0.0073, 0.0780001,0,0.1429,1,7,0.1167
2019-01-09T21:22:39,Moto360_247G,0.0763,0.0079, 0.0780001,0,0.125,1,8,0.1333
2019-01-09T21:23:39,Moto360_247G,0.0777,0.0076, 0.0780001,0,0.1111,1,9,0.15
2019-01-09T21:24:41,Moto360_247G,0.0784,0.0078, 0.0780001,0,0.1,1,10,0.1667
2019-01-09T21:25:41,Moto360_247G,0.0648,0.0092, 0.0780001,0,0.0,0,10,0.1667
2019-01-09T21:26:41,Moto360_247G,0.0601,0.0075, 0.0780001,0,0.0,0,10,0.1667
2019-01-09T21:27:41,Moto360_247G,0.0618,0.0075, 0.0780001,0,0.0,0,10,0.1667
2019-01-09T21:28:41,Moto360_247G,0.0618,0.0082, 0.0780001,0,0.0,0,10,0.1667
2019-01-09T21:29:41,Moto360_247G,0.0614,0.007, 0.0780001,0,0.0,0,10,0.1667
2019-01-09T21:31:06,Moto360_247G,0.061,0.0068, 0.0780001,0,0.0,0,10,0.1667
2019-01-09T21:32:09,Moto360_247G,0.0611,0.007, 0.0780001,0,0.0,0,10,0.1667
2019-01-09T21:33:09,Moto360_247G,0.0631,0.0073, 0.0780001,0,0.0,0,10,0.1667
2019-01-09T21:34:39,Moto360_247G,0.0618,0.0066, 0.0780001,0,0.0,0,10,0.1667
2019-01-09T21:35:39,Moto360_247G,0.2537,1.012, 0.0780001,1,0.1,1,11,0.1833
2019-01-09T21:36:39,Moto360_247G,0.1355,0.0066, 0.0780001,0,0.1,1,12,0.2
2019-01-09T21:38:01,Moto360_247G,0.1331,0.0066, 0.0780001,0,0.1,1,13,0.2167
2019-01-09T21:39:01,Moto360_247G,0.1364,0.0074, 0.0780001,0,0.1,1,14,0.2333
2019-01-09T21:40:02,Moto360_247G,0.1338,0.0074, 0.0780001,0,0.1,1,15,0.25
2019-01-09T21:41:05,Moto360_247G,0.1338,0.0069, 0.0780001,0,0.1,1,16,0.2667
2019-01-09T21:42:07,Moto360_247G,0.0921,0.0116, 0.0780001,0,0.1,1,17,0.2833
2019-01-09T21:43:07,Moto360_247G,0.0867,0.0065, 0.0780001,0,0.1,1,18,0.3
2019-01-09T21:44:40,Moto360_247G,0.087,0.0067, 0.0780001,0,0.1,1,19,0.3167
2019-01-09T21:45:40,Moto360_247G,0.246,0.8361, 0.0780001,1,0.2,1,20,0.3333
2019-01-09T21:46:40,Moto360_247G,0.1207,0.0064, 0.0780001,0,0.1,1,21,0.35
2019-01-09T21:47:40,Moto360_247G,0.1222,0.0064, 0.0780001,0,0.1,1,22,0.3667
2019-01-09T21:48:40,Moto360_247G,0.1218,0.0061, 0.0780001,0,0.1,1,23,0.3833
2019-01-09T21:49:40,Moto360_247G,0.1203,0.0066, 0.0780001,0,0.1,1,24,0.4
2019-01-09T21:51:02,Moto360_247G,0.1136,0.0158, 0.0780001,0,0.1,1,25,0.4167
2019-01-09T21:52:39,Moto360_247G,0.0842,0.0067, 0.0780001,0,0.1,1,26,0.4333
2019-01-09T21:53:39,Moto360_247G,0.0844,0.0061, 0.0780001,0,0.1,1,27,0.45
2019-01-09T21:54:39,Moto360_247G,0.084,0.0072, 0.0780001,0,0.1,1,28,0.4667
2019-01-09T21:55:39,Moto360_247G,0.0881,0.0143, 0.0780001,0,0.1,1,29,0.4833
2019-01-09T21:56:39,Moto360_247G,0.131,0.0073, 0.0780001,0,0.0,0,29,0.4833
2019-01-09T21:57:39,Moto360_247G,0.1304,0.0068, 0.0780001,0,0.0,0,29,0.4833
2019-01-09T21:58:40,Moto360_247G,0.1304,0.0077, 0.0780001,0,0.0,0,29,0.4833
2019-01-09T21:59:40,Moto360_247G,0.1309,0.0079, 0.0780001,0,0.0,0,29,0.4833
2019-01-09T22:00:40,Moto360_247G,0.1315,0.0079, 0.0780001,0,0.0,0,29,0.4833
2019-01-09T22:02:01,Moto360_247G,0.12,0.0067, 0.0780001,0,0.0,0,29,0.4833
2019-01-09T22:03:01,Moto360_247G,0.1209,0.0074, 0.0780001,0,0.0,0,29,0.4833
2019-01-09T22:04:01,Moto360_247G,0.1185,0.0077, 0.0780001,0,0.0,0,29,0.4833
2019-01-09T22:05:39,Moto360_247G,0.1196,0.0076, 0.0780001,0,0.0,0,29,0.4833
2019-01-09T22:07:02,Moto360_247G,0.1214,0.0068, 0.0780001,0,0.0,0,29,0.4833
2019-01-09T22:08:02,Moto360_247G,0.1208,0.007, 0.0780001,0,0.0,0,29,0.4833
2019-01-09T22:09:02,Moto360_247G,0.1238,0.0066, 0.0780001,0,0.0,0,29,0.4833
2019-01-09T22:10:02,Moto360_247G,0.4641,0.802, 0.0780001,1,0.1,1,30,0.5
2019-01-09T22:12:21,Moto360_247G,0.126,0.2896, 0.0780001,1,1.0,1,1,0.0167
2019-01-09T22:13:21,Moto360_247G,0.1411,0.2996, 0.0780001,1,1.0,1,2,0.0333
2019-01-09T22:14:21,Moto360_247G,0.0807,0.0245, 0.0780001,0,0.6667,1,3,0.05
2019-01-09T22:15:22,Moto360_247G,0.0541,0.0106, 0.0780001,0,0.5,1,4,0.0667
2019-01-09T22:41:42,Moto360_247G,0.1049,0.1822, 0.0780001,1,1.0,1,1,0.0167
2019-01-09T22:42:43,Moto360_247G,0.056,0.0472, 0.0780001,0,0.5,1,2,0.0333
2019-01-09T22:43:44,Moto360_247G,0.2082,0.4701, 0.0780001,1,0.6667,1,3,0.05
2019-01-09T22:44:46,Moto360_247G,0.0837,0.0059, 0.0780001,0,0.5,1,4,0.0667
2019-01-09T22:45:49,Moto360_247G,0.0866,0.0061, 0.0780001,0,0.4,1,5,0.0833
2019-01-09T22:46:52,Moto360_247G,0.0914,0.0061, 0.0780001,0,0.3333,1,6,0.1
2019-01-09T22:47:55,Moto360_247G,0.0947,0.0062, 0.0780001,0,0.2857,1,7,0.1167
2019-01-09T22:48:56,Moto360_247G,0.2219,0.6259, 0.0780001,1,0.375,1,8,0.1333
2019-01-09T22:49:56,Moto360_247G,0.1134,0.0993, 0.0780001,1,0.4444,1,9,0.15
2019-01-09T22:54:43,Moto360_247G,0.2348,0.6914, 0.0780001,1,1.0,1,1,0.0167
2019-01-09T22:55:43,Moto360_247G,0.0442,0.0088, 0.0780001,0,0.5,1,2,0.0333
2019-01-09T22:57:01,Moto360_247G,0.0403,0.0081, 0.0780001,0,0.3333,1,3,0.05
2019-01-09T22:58:02,Moto360_247G,0.0391,0.0079, 0.0780001,0,0.25,1,4,0.0667
2019-01-09T22:59:02,Moto360_247G,0.0372,0.0073, 0.0780001,0,0.2,1,5,0.0833
2019-01-09T23:00:02,Moto360_247G,0.0411,0.0079, 0.0780001,0,0.1667,1,6,0.1
2019-01-09T23:01:02,Moto360_247G,0.2408,1.0952, 0.0780001,1,0.2857,1,7,0.1167
2019-01-09T23:02:02,Moto360_247G,0.1191,0.0074, 0.0780001,0,0.25,1,8,0.1333
2019-01-09T23:03:02,Moto360_247G,0.119,0.0073, 0.0780001,0,0.2222,1,9,0.15
2019-01-09T23:04:14,Moto360_247G,0.1177,0.0068, 0.0780001,0,0.2,1,10,0.1667
2019-01-09T23:05:43,Moto360_247G,0.1217,0.0075, 0.0780001,0,0.1,1,11,0.1833
2019-01-09T23:06:43,Moto360_247G,0.1204,0.0073, 0.0780001,0,0.1,1,12,0.2
2019-01-09T23:07:43,Moto360_247G,0.1177,0.007, 0.0780001,0,0.1,1,13,0.2167
2019-01-09T23:08:43,Moto360_247G,0.1149,0.007, 0.0780001,0,0.1,1,14,0.2333
2019-01-09T23:09:47,Moto360_247G,0.1138,0.0073, 0.0780001,0,0.1,1,15,0.25
2019-01-09T23:10:47,Moto360_247G,0.1121,0.0072, 0.0780001,0,0.1,1,16,0.2667
2019-01-09T23:12:00,Moto360_247G,0.0937,0.0166, 0.0780001,0,0.0,0,16,0.2667
2019-01-09T23:13:00,Moto360_247G,0.0791,0.0068, 0.0780001,0,0.0,0,16,0.2667
2019-01-09T23:14:00,Moto360_247G,0.0799,0.0073, 0.0780001,0,0.0,0,16,0.2667
2019-01-09T23:15:01,Moto360_247G,0.08,0.0071, 0.0780001,0,0.0,0,16,0.2667
2019-01-09T23:16:01,Moto360_247G,0.0783,0.007, 0.0780001,0,0.0,0,16,0.2667
2019-01-09T23:17:11,Moto360_247G,0.0793,0.0072, 0.0780001,0,0.0,0,16,0.2667
2019-01-09T23:18:35,Moto360_247G,0.0769,0.0075, 0.0780001,0,0.0,0,16,0.2667
2019-01-09T23:19:44,Moto360_247G,0.0785,0.0073, 0.0780001,0,0.0,0,16,0.2667
2019-01-09T23:20:52,Moto360_247G,0.0779,0.0072, 0.0780001,0,0.0,0,16,0.2667
2019-01-09T23:22:00,Moto360_247G,0.0746,0.0072, 0.0780001,0,0.0,0,16,0.2667
2019-01-09T23:23:01,Moto360_247G,0.0587,0.0093, 0.0780001,0,0.0,0,16,0.2667
2019-01-09T23:24:01,Moto360_247G,0.1549,0.3547, 0.0780001,1,0.1,1,17,0.2833
2019-01-09T23:26:59,Moto360_247G,0.102,0.4132, 0.0780001,1,1.0,1,1,0.0167
2019-01-09T23:27:59,Moto360_247G,0.0212,0.0065, 0.0780001,0,0.5,1,2,0.0333
2019-01-09T23:29:00,Moto360_247G,0.0255,0.0067, 0.0780001,0,0.3333,1,3,0.05
2019-01-09T23:30:00,Moto360_247G,0.0295,0.0067, 0.0780001,0,0.25,1,4,0.0667
